[[{"header":{"parameterUnit":"m.s-1","parameterCategory":1,"la1":30.2991,"la2":30.254,"lo1":-89.0895,"lo2":-89.0444,"dy":0.0017,"dx":0.0017,"nx":28,"ny":28,"refTime":"2024-06-08T09:00:00:Z","depth":0,"parameterNumber":2,"parameterNumberName":"U-component_of_WINDS"},"data":[0,0,0,0,0,0,0,0,0,0,0,0,0,0,0,0,0,0,0,0,0,0,0,0,0,0,0,0,0,0,0,0,0,0,0,0,0,0,0,0,0,0,0,0,0,0,0,0,0,0,0,0,0,0,0,0,0,0,1.4453,1.4454,0,1.4518,1.4519,1.452,1.4544,1.4544,1.4544,1.4544,1.4611,1.4613,1.4615,0,0,0,0,0,0,0,0,0,0,0,0,0,1.4351,1.4353,1.4453,1.4454,1.4455,1.4518,1.4519,1.452,1.4544,1.4544,1.4544,1.4544,1.461,1.4613,1.4615,0,0,0,0,0,0,0,0,0,0,0,0,0,1.4404,1.4353,1.4453,1.4475,1.4477,1.4518,1.4519,1.452,1.4544,1.4544,1.4544,1.4544,1.4609,1.4612,1.4615,1.4639,0,0,1.4624,1.4626,0,0,0,0,0,0,0,0,1.4401,1.4407,1.4471,1.4473,1.4476,1.4523,1.4508,1.456,1.4544,1.4519,1.4544,1.4543,1.4582,1.4587,1.46,1.4642,1.4645,1.4624,1.4626,1.4628,1.4628,0,0,0,0,0,0,0,1.4397,1.4405,1.4479,1.4471,1.4475,1.4481,1.4488,1.4518,1.4551,1.4521,1.4523,1.453,1.4583,1.4597,1.4602,1.4646,1.4624,1.4627,1.4629,1.463,1.4713,1.4713,0,0,0,0,0,0,1.439,1.4402,1.4477,1.4481,1.4437,1.4483,1.4491,1.4508,1.4551,1.4557,1.4531,1.4531,1.4592,1.4598,1.4604,1.4636,1.4628,1.463,1.4632,1.4712,1.4713,1.4713,0,0,0,0,0,0,1.4387,1.4396,1.4474,1.4442,1.4452,1.4485,1.4504,1.451,1.4523,1.4558,1.4564,1.4538,1.4592,1.46,1.463,1.4638,1.4632,1.4634,1.4712,1.4713,1.4713,1.4698,0,0,0,0,0,0,1.4384,1.4395,1.4404,1.4442,1.4454,1.4499,1.4504,1.4511,1.4528,1.453,1.4567,1.4573,1.4592,1.4626,1.4633,1.4642,1.4637,1.4711,1.4712,1.4713,1.4698,1.4698,1.4698,0,0,0,0,0,1.4381,1.4397,1.4405,1.4413,1.4466,1.4499,1.4506,1.4528,1.4529,1.4538,1.4561,1.4572,1.4636,1.4629,1.4637,1.4647,1.4711,1.4712,1.4713,1.4698,1.4698,1.4698,0,0,0,0,0,0,1.436,1.4403,1.4411,1.444,1.4466,1.4503,1.4516,1.4528,1.4554,1.4554,1.4581,1.4589,1.4617,1.4635,1.4626,1.4673,1.4674,1.4677,1.466,1.4661,1.4661,1.4656,1.4639,0,0,0,0,0,1.4358,1.4382,1.4418,1.4441,1.4453,1.4482,1.4498,1.4513,1.454,1.4551,1.4576,1.4603,1.4629,1.4646,1.4672,1.4701,1.471,1.4712,1.4712,1.4712,1.4714,1.4732,1.4733,1.4717,1.4717,1.4717,0,0,1.4356,1.4382,1.4396,1.4437,1.4459,1.4483,1.4491,1.4516,1.4534,1.4555,1.4586,1.4605,1.4636,1.4666,1.4681,1.4682,1.4721,1.4713,1.4713,1.4715,1.4733,1.4734,1.4736,1.4717,1.4717,1.4717,0,0,1.4364,1.4386,1.4408,1.443,1.4462,1.4482,1.4487,1.4523,1.4537,1.4568,1.4584,1.4606,1.4651,1.4673,1.469,1.4708,1.4719,1.4716,1.4716,1.4733,1.4734,1.4736,1.4742,1.4744,1.4718,1.4718,1.4718,0,1.4357,1.4394,1.4417,1.4442,1.446,1.448,1.4502,1.4522,1.4562,1.4574,1.4575,1.4632,1.4655,1.4691,1.4695,1.4708,1.4715,1.4712,1.4732,1.4734,1.4735,1.4742,1.4745,1.4717,1.4717,1.4717,1.4717,0,1.4384,1.4409,1.4423,1.4461,1.4481,1.4504,1.4531,1.4548,1.4562,1.4581,1.4613,1.4641,1.4674,1.4683,1.4696,1.4721,1.4721,1.4727,1.4729,1.4736,1.4743,1.4746,1.4716,1.4717,1.4717,1.4717,0,0,1.438,1.4432,1.4436,1.4454,1.4492,1.4512,1.4537,1.4569,1.4583,1.461,1.4632,1.467,1.4675,1.4695,1.4711,1.4725,1.4738,1.473,1.4731,1.473,1.4768,1.4764,1.4766,1.4746,1.4747,1.4747,1.4766,0,1.4393,1.4438,1.446,1.4495,1.4519,1.4539,1.4561,1.4587,1.4606,1.463,1.4651,1.4678,1.4683,1.4695,1.471,1.4733,1.4746,1.4732,1.4767,1.4768,1.4758,1.477,1.4765,1.4781,1.4768,1.4769,1.4769,0,1.4415,1.4442,1.4479,1.4516,1.4527,1.4545,1.4577,1.4599,1.4629,1.4643,1.4665,1.468,1.4708,1.4707,1.4745,1.4735,1.4751,1.4765,1.4766,1.477,1.4769,1.4774,1.4787,1.4789,1.4774,1.4773,1.4773,0,1.4408,1.4454,1.4483,1.4498,1.4541,1.4554,1.4572,1.4602,1.462,1.4648,1.466,1.4691,1.4707,1.4731,1.4755,1.4752,1.4791,1.4792,1.4802,1.4802,1.4809,1.4809,1.4824,1.4819,1.4819,1.4819,1.4819,0,1.4421,1.4443,1.4481,1.4499,1.4524,1.455,1.4575,1.4595,1.4622,1.4644,1.4663,1.4684,1.4714,1.4738,1.4757,1.4786,1.4794,1.4805,1.481,1.4804,1.4802,1.4814,1.4813,1.482,1.482,1.4819,1.4819,0,1.4418,1.4444,1.4477,1.4515,1.4526,1.4543,1.4576,1.4594,1.4615,1.4643,1.4651,1.4683,1.4713,1.4739,1.4778,1.4791,1.4821,1.4826,1.481,1.4813,1.4822,1.4821,1.4846,1.4851,1.4842,1.4842,1.4842,0,1.4425,1.4442,1.4483,1.4499,1.4518,1.4544,1.4562,1.4589,1.4608,1.4644,1.4658,1.4689,1.4715,1.4762,1.4789,1.482,1.4826,1.4833,1.4831,1.4824,1.4827,1.4826,1.4828,1.4833,1.4833,1.4833,1.4833,0,1.4433,1.4446,1.4472,1.4503,1.4525,1.4551,1.4577,1.459,1.4621,1.4641,1.4672,1.4693,1.4733,1.4764,1.4798,1.4817,1.483,1.4834,1.4838,1.4831,1.4821,1.4827,1.481,1.4833,1.4833,1.4833,1.4833,1.4833,1.4436,1.4453,1.4484,1.4513,1.4536,1.456,1.4579,1.4603,1.4629,1.4664,1.4678,1.471,1.474,1.4787,1.4806,1.4832,1.4834,1.484,1.4841,1.4842,1.4841,1.4817,1.4838,1.4838,1.4838,1.4838,1.4838,0,1.4446,1.4467,1.4494,1.453,1.4553,1.4564,1.4594,1.4613,1.464,1.4668,1.4693,1.4729,1.4759,1.4789,1.4821,1.4836,1.4843,1.4843,1.4842,1.4847,1.4837,1.483,1.4837,1.4837,1.4837,1.4837,1.4837,1.4837,1.4454,1.4483,1.4499,1.4541,1.4562,1.4593,1.461,1.4632,1.4655,1.4694,1.4719,1.4738,1.4767,1.4801,1.483,1.4838,1.4849,1.4848,1.4857,1.4848,1.4847,1.4847,1.4841,1.485,1.485,1.4865,1.4865,1.4866]},{"header":{"parameterUnit":"m.s-1","parameterCategory":1,"la1":30.2991,"la2":30.254,"lo1":-89.0895,"lo2":-89.0444,"dy":0.0017,"dx":0.0017,"nx":28,"ny":28,"refTime":"2024-06-08T09:00:00:Z","depth":0,"parameterNumber":3,"parameterNumberName":"V-component_of_WINDS"},"data":[0,0,0,0,0,0,0,0,0,0,0,0,0,0,0,0,0,0,0,0,0,0,0,0,0,0,0,0,0,0,0,0,0,0,0,0,0,0,0,0,0,0,0,0,0,0,0,0,0,0,0,0,0,0,0,0,0,0,1.387,1.3871,0,1.3896,1.3896,1.3896,1.389,1.3889,1.3889,1.3888,1.3913,1.3914,1.3915,0,0,0,0,0,0,0,0,0,0,0,0,0,1.3813,1.3814,1.387,1.3871,1.3871,1.3896,1.3896,1.3897,1.389,1.3889,1.3889,1.3888,1.3913,1.3914,1.3916,0,0,0,0,0,0,0,0,0,0,0,0,0,1.3838,1.3814,1.387,1.3871,1.3871,1.3896,1.3896,1.3897,1.389,1.3889,1.3888,1.3888,1.3912,1.3914,1.3916,1.3941,0,0,1.3921,1.3922,0,0,0,0,0,0,0,0,1.3837,1.384,1.387,1.3871,1.3871,1.3889,1.3885,1.3912,1.389,1.3883,1.3888,1.3887,1.3906,1.3908,1.3914,1.3943,1.3944,1.3921,1.3922,1.3923,1.3923,0,0,0,0,0,0,0,1.3835,1.3839,1.388,1.3871,1.3871,1.3869,1.3871,1.389,1.3898,1.3883,1.3883,1.3886,1.3906,1.3913,1.3915,1.3944,1.3921,1.3923,1.3924,1.3924,1.3991,1.3992,0,0,0,0,0,0,1.3833,1.3838,1.388,1.3881,1.3852,1.387,1.3873,1.3884,1.3898,1.3899,1.3887,1.3886,1.391,1.3913,1.3916,1.3944,1.3923,1.3924,1.3925,1.399,1.3991,1.3992,0,0,0,0,0,0,1.3832,1.3837,1.3879,1.3859,1.3864,1.3872,1.3884,1.3885,1.3892,1.39,1.3902,1.3892,1.391,1.3913,1.3934,1.3945,1.3925,1.3927,1.3989,1.3991,1.3992,1.4004,0,0,0,0,0,0,1.383,1.3837,1.3848,1.386,1.3866,1.3898,1.3885,1.3886,1.3895,1.3894,1.3906,1.3908,1.3909,1.3932,1.3936,1.3947,1.3928,1.3988,1.399,1.3991,1.4002,1.4005,1.4007,0,0,0,0,0,1.3828,1.385,1.3848,1.3853,1.3879,1.3899,1.3902,1.3904,1.3896,1.3906,1.3911,1.3907,1.3943,1.3934,1.3939,1.3951,1.3988,1.399,1.3991,1.4001,1.4004,1.4007,0,0,0,0,0,0,1.384,1.3852,1.385,1.3877,1.3886,1.3898,1.3911,1.3908,1.392,1.3919,1.392,1.3923,1.3944,1.395,1.3939,1.3974,1.3964,1.3967,1.397,1.3973,1.3976,1.3974,1.393,0,0,0,0,0,1.3846,1.3861,1.387,1.3893,1.3898,1.3903,1.3912,1.3912,1.3923,1.3927,1.3934,1.3943,1.3956,1.3965,1.3978,1.4003,1.4004,1.4013,1.4016,1.4018,1.402,1.403,1.4034,1.3998,1.3998,1.3998,0,0,1.3857,1.3866,1.3876,1.3895,1.3903,1.3918,1.3907,1.3924,1.3934,1.3929,1.3949,1.3954,1.3965,1.3987,1.3997,1.3992,1.403,1.402,1.4021,1.4022,1.4032,1.4036,1.4039,1.3999,1.3999,1.3998,0,0,1.3886,1.3895,1.3913,1.3921,1.3932,1.3935,1.3939,1.395,1.3953,1.3973,1.3969,1.3981,1.4005,1.4011,1.4018,1.4046,1.4042,1.405,1.4063,1.4073,1.4076,1.4079,1.4087,1.409,1.4052,1.4052,1.4052,0,1.3899,1.3922,1.3923,1.3939,1.3947,1.3942,1.396,1.3967,1.3982,1.3987,1.3981,1.4009,1.4016,1.4038,1.4045,1.4051,1.4054,1.4048,1.4076,1.4078,1.4081,1.4088,1.4091,1.4053,1.4053,1.4053,1.4053,0,1.3936,1.3951,1.3965,1.3978,1.3988,1.4005,1.4007,1.4016,1.4015,1.4018,1.4036,1.4044,1.4057,1.4063,1.4063,1.4084,1.4081,1.4075,1.4065,1.4085,1.4092,1.4095,1.4054,1.4054,1.4054,1.4053,0,0,1.3974,1.3986,1.3991,1.3996,1.4007,1.4018,1.4034,1.4046,1.4053,1.4063,1.4075,1.4093,1.4087,1.4095,1.4095,1.4104,1.4123,1.4097,1.4098,1.41,1.4145,1.4148,1.4151,1.412,1.4121,1.4121,1.4143,0,1.4002,1.403,1.403,1.4055,1.4067,1.4062,1.4075,1.4082,1.4085,1.4095,1.4098,1.411,1.4103,1.4107,1.4116,1.4119,1.4131,1.4117,1.413,1.413,1.4126,1.4155,1.4159,1.418,1.4146,1.4147,1.4147,0,1.404,1.4049,1.4075,1.4081,1.4086,1.4098,1.4108,1.4119,1.4126,1.4127,1.4134,1.4132,1.4145,1.4135,1.4153,1.4143,1.4148,1.415,1.4151,1.4151,1.4139,1.4155,1.4186,1.4189,1.4152,1.4151,1.4151,0,1.4062,1.4082,1.4099,1.4103,1.4112,1.412,1.4124,1.413,1.4137,1.4145,1.4149,1.4159,1.4164,1.4172,1.4171,1.4164,1.4189,1.4179,1.4189,1.4189,1.4194,1.4194,1.4225,1.4199,1.4199,1.4199,1.4199,0,1.4093,1.4108,1.4109,1.4119,1.4135,1.4135,1.415,1.4153,1.4159,1.4169,1.4165,1.4174,1.4174,1.4183,1.4183,1.4196,1.4199,1.4199,1.4199,1.4199,1.4199,1.4202,1.42,1.42,1.42,1.4199,1.4199,0,1.4121,1.4122,1.414,1.4146,1.4147,1.4159,1.4163,1.4172,1.4174,1.4186,1.4189,1.4191,1.4201,1.4201,1.4213,1.4213,1.4229,1.4228,1.4226,1.4226,1.4235,1.4234,1.4269,1.4273,1.4245,1.4246,1.4246,0,1.414,1.4151,1.4158,1.4164,1.4168,1.4178,1.4184,1.4183,1.4189,1.4197,1.4204,1.4214,1.4221,1.4237,1.4239,1.4248,1.4246,1.4257,1.4247,1.4246,1.4244,1.4243,1.4243,1.4259,1.426,1.426,1.426,0,1.4173,1.4172,1.4181,1.419,1.4197,1.4203,1.421,1.4215,1.4214,1.4221,1.4231,1.4237,1.4248,1.4256,1.4264,1.4267,1.4263,1.4263,1.4266,1.4265,1.4264,1.4263,1.423,1.4262,1.4262,1.4262,1.4262,1.4262,1.4196,1.4205,1.421,1.4219,1.4223,1.4228,1.4236,1.4238,1.4246,1.4255,1.4253,1.4264,1.4268,1.4278,1.4281,1.4289,1.4284,1.4289,1.4289,1.429,1.429,1.4263,1.429,1.429,1.429,1.429,1.429,0,1.4227,1.4229,1.4238,1.4246,1.4253,1.4248,1.4254,1.4259,1.4268,1.4273,1.428,1.429,1.4298,1.43,1.4307,1.4312,1.431,1.4314,1.4313,1.4313,1.4294,1.4291,1.4315,1.4315,1.4315,1.4315,1.4315,1.4315,1.4244,1.4258,1.4257,1.4272,1.4274,1.4284,1.4287,1.4292,1.4295,1.4306,1.4312,1.4313,1.4316,1.4323,1.4329,1.433,1.4332,1.4336,1.4335,1.4318,1.4315,1.4313,1.4309,1.4337,1.4337,1.4354,1.4354,1.4354]}]]